{"data":{"norad_id":60086,"epoch":"2026-05-25T03:50:01.744224Z","epoch_age_seconds":51347,"freshness":"FRESH","line1":"1 60086U 24115A   26145.15974241  .00000116  00000+0  00000+0 0  9990","line2":"2 60086   0.0716  33.0170 0001535 269.6635  16.7688  1.00258065  6965","mean_motion":1.00258065,"eccentricity":0.0001535,"inclination_deg":0.0716,"raan_deg":33.017,"arg_perigee_deg":269.6635,"mean_anomaly_deg":16.7688,"bstar":0,"rev_number":696,"period_min":1436.2934293615,"perigee_km":35783.968737036,"apogee_km":35796.91449067,"semimajor_km":42168.578613853,"source":"CELESTRAK","updated_at":"2026-05-25T13:38:14.520475Z"}}